Home > Weather > Dubrovnik > Past weeks

Flag for Croatia Past Weather in Dubrovnik, Croatia — Yesterday and Last 2 Weeks

Now
73 °F

Sunny.


Feels Like: 72 °F
Forecast: 62 / 79 °F
Wind: 5 mph from Northwest

Location: Dubrovnik / Cilipi

Current Time: Aug 29, 2016 at 8:04:39 PM

Latest Report: Aug 29, 2016 at 7:30 PM


Visibility: 10 mi

Pressure: 29.98 "Hg

Humidity: 89%

Dew Point: 70 °F

Location of DubrovnikLocation

Past Weather in Dubrovnik — Graph

°F

Dubrovnik Temperature Yesterday

Maximum temperature yesterday: 82 °F (at 11:00 AM)
Minimum temperature yesterday: 66 °F (at 4:00 AM)
Average temperature yesterday: 74 °F

High & Low Weather Summary for the Past Weeks

 TemperatureHumidityPressure
High88 °F (Aug 24, 3:00 PM)100% (Aug 16, 9:30 PM)30.15 "Hg (Aug 16, 9:30 PM)
Low64 °F (Aug 16, 5:30 AM)31% (Aug 23, 2:00 PM)29.83 "Hg (Aug 18, 4:30 AM)
Average76 °F58%29.99 "Hg
* Reported Aug 14 7:00 PM — Aug 29 7:00 PM, Dubrovnik, Weather by CustomWeather, © 2016

Note: Actual official high and low records may vary slightly from our data, if they occured in-between our weather recording intervals... More about our weather records

Advertising

Dubrovnik Weather History for the Previous 24 Hours

Scroll right to see more
 ConditionsComfort  
Time TempWeatherWind HumidityBarometerVisibility
7:00 PM
Mon, Aug 29
75 °FPassing clouds.6 mph83%29.95 "HgN/A
6:30 PM77 °FPassing clouds.6 mph79%29.98 "HgN/A
6:00 PM77 °FPassing clouds.6 mph79%29.98 "HgN/A
5:30 PM79 °FPassing clouds.7 mph70%29.98 "HgN/A
5:00 PM79 °FPassing clouds.7 mph74%29.98 "HgN/A
4:30 PM79 °FScattered clouds.7 mph74%29.98 "HgN/A
4:00 PM79 °FPassing clouds.8 mph74%29.98 "HgN/A
3:30 PM79 °FPassing clouds.8 mph74%30.01 "HgN/A
3:00 PM79 °FPassing clouds.8 mph74%30.01 "HgN/A
2:30 PM79 °FPassing clouds.8 mph70%30.01 "HgN/A
2:00 PM79 °FPassing clouds.7 mph58%30.01 "HgN/A
1:30 PM79 °FPassing clouds.7 mph65%30.01 "HgN/A
1:00 PM79 °FPassing clouds.7 mph70%30.01 "HgN/A
12:30 PM79 °FPassing clouds.7 mph74%30.01 "HgN/A
12:00 PM79 °FPassing clouds.8 mph74%30.04 "HgN/A
11:30 AM77 °FPassing clouds.8 mph74%30.04 "HgN/A
11:00 AM77 °FPassing clouds.8 mph69%30.04 "HgN/A
10:30 AM79 °FPassing clouds.6 mph65%30.04 "HgN/A
10:00 AM77 °FPassing clouds.7 mph74%30.04 "HgN/A
9:30 AM79 °FSunny.3 mph65%30.04 "Hg10 mi
9:00 AM77 °FPassing clouds.5 mph54%30.04 "HgN/A
8:30 AM77 °FSunny.2 mph57%30.01 "Hg10 mi
8:00 AM75 °FSunny.2 mph61%30.01 "Hg10 mi
7:30 AM70 °FSunny.1 mph64%30.01 "Hg10 mi
7:00 AM66 °FClear.5 mph68%30.01 "Hg10 mi
6:30 AM68 °FClear.2 mph64%30.01 "Hg10 mi
6:00 AM66 °FClear.1 mph68%30.01 "Hg10 mi
5:30 AM68 °FClear.3 mph64%30.01 "Hg10 mi
5:00 AM66 °FClear.2 mph68%30.01 "Hg10 mi
4:30 AM66 °FClear.2 mph68%30.01 "Hg10 mi
4:00 AM64 °FClear.1 mph78%30.04 "Hg10 mi
3:30 AM66 °FClear.5 mph73%30.04 "Hg10 mi
3:00 AM68 °FClear.6 mph64%30.04 "Hg10 mi
2:30 AM68 °FClear.5 mph64%30.04 "Hg10 mi
2:00 AM66 °FClear.No wind78%30.04 "Hg10 mi
1:30 AM68 °FClear.2 mph69%30.04 "Hg10 mi
1:00 AM70 °FClear.No wind69%30.04 "Hg10 mi
12:30 AM70 °FClear.2 mph64%30.04 "Hg10 mi
12:00 AM70 °FPassing clouds.3 mph64%30.04 "HgN/A
11:30 PM
Sun, Aug 28
72 °FClear.1 mph61%30.04 "Hg10 mi
11:00 PM72 °FClear.6 mph57%30.04 "Hg10 mi
10:30 PM72 °FPassing clouds.3 mph61%30.04 "HgN/A
10:00 PM73 °FPassing clouds.3 mph61%30.04 "HgN/A
8:30 PM73 °FPassing clouds.3 mph65%30.04 "HgN/A
8:00 PM73 °FSunny.1 mph61%30.04 "Hg10 mi
Weather by CustomWeather, © 2016

See weather overviewHow to use our weather pages